カタログに戻る

GONETS D1 7

運用中通信PO
NORAD 27058·PAYLOAD·🇷🇺 Russia

打ち上げ Dec 28, 2001 から Plesetsk Cosmodrome

Loading…

次のパス (今後24時間)

TLE

最新Source: Space-Track

元期: Sep 14, 2026, 15:23 UTC

1 27058U 01058D   26257.64159266  .00000037  00000-0  14650-3 0  9996
2 27058  82.5363 144.4675 0003205 136.5705 223.5639 12.62087866138276

AllMySatでGONETS D1 7をリアルタイム追跡

Download on the App Store